Location: Earls Croome
(52.0667°N, 2.2000°W)
Time: 01:39:14
(UTC+00:00)

Cosmos 1743 Rocket - Pass Details

Date: 17 November 2019
Orbit: 605 x 632 km, 82.6° (Epoch: 12 December)

Event Time Altitude Azimuth Distance (km) Brightness Sun altitude
Rises 06:09:24 0° 189° (S) 2,859 7.1 -12.5°
Reaches altitude 10° 06:11:37 10° 189° (S) 1,956 6.2 -12.1°
Maximum altitude 06:15:56 90° 264° (W) 614 3.5 -11.5°
Drops below altitude 10° 06:20:18 10° 11° (N) 1,967 6.1 -10.9°
Sets 06:22:32 0° 11° (N) 2,876 6.9 -10.5°
